Stations météo

Publicité
Bergerac, France (7530): Température de l'air & dewpoint: 20.05.2019 09:00:00 - 26.05.2019 09:00:00 (CEST)Bergerac, France (7530): Température de l'air 5cm: 20.05.2019 09:00:00 - 26.05.2019 09:00:00 (CEST)Bergerac, France (7530): Température de l'air -20cm & Température de l'air -100cm: 20.05.2019 09:00:00 - 26.05.2019 09:00:00 (CEST)Bergerac, France (7530): Vitesse du vent & gusts: 20.05.2019 09:00:00 - 26.05.2019 09:00:00 (CEST)Bergerac, France (7530): Direction du vent: 20.05.2019 09:00:00 - 26.05.2019 09:00:00 (CEST)Bergerac, France (7530): reduced air pressure: 20.05.2019 09:00:00 - 26.05.2019 09:00:00 (CEST)Bergerac, France (7530): visibility: 20.05.2019 09:00:00 - 26.05.2019 09:00:00 (CEST)Bergerac, France (7530): Ensoleillement: 20.05.2019 09:00:00 - 26.05.2019 09:00:00 (CEST)Bergerac, France (7530): Quantités de précipitations: 20.05.2019 09:00:00 - 26.05.2019 09:00:00 (CEST)
Date & Time tt [°C] td [°C] tt 5cm [°C] tt -20cm [°C] tt -100cm [°C] ff [km/h] ff [knt] fx [km/h] fx [knt] dd ppp [hPa] vv [km] sd [min] rr [mm]
26.05.2019 09:00:00 14,1 12,5 14,2 16,6 14,3 14 8 22 12 WNW 1021,6 17 0 0,0
26.05.2019 08:00:00 13,8 12,5 13,6 16,7 14,3 12 7 18 10 WNW 1021,4 16 0 0,0
26.05.2019 07:00:00 13,4 12,3 13,1 16,8 14,3 11 6 17 9 W 1021,2 18 0 0,0
26.05.2019 06:00:00 13,2 11,9 13,0 16,9 14,3 12 6 20 11 W 1021,1 20 0 0,0
26.05.2019 05:00:00 13,2 11,8 12,9 17,0 14,3 13 7 20 11 W 1021,3 30 0 0,0
26.05.2019 04:00:00 13,0 11,6 12,6 17,0 14,3 10 5 18 10 W 1021,6 33 0 0,0
26.05.2019 03:00:00 13,0 11,2 12,7 17,1 14,3 10 5 23 12 W 1021,8 39 0 0,0
26.05.2019 02:00:00 13,3 11,2 12,6 17,2 14,3 13 7 23 12 W 1022,2 46 0 0,0
26.05.2019 01:00:00 13,3 11,0 12,1 17,3 14,3 11 6 23 13 W 1022,6 50 0 0,0
26.05.2019 00:00:00 13,5 10,8 12,4 17,4 14,2 16 8 26 14 W 1022,6 54 0 0,0
25.05.2019 23:00:00 15,1 11,3 14,0 17,4 14,3 17 9 31 17 NW 1022,3 59 0 0,0
25.05.2019 22:00:00 16,4 11,3 15,3 17,5 14,3 17 9 27 15 WNW 1021,6 60 4 0,0
25.05.2019 21:00:00 16,8 11,3 15,6 17,5 14,3 14 7 31 17 WNW 1021,1 14 31 0,0
25.05.2019 20:00:00 17,6 11,6 17,2 17,4 14,3 20 11 34 18 W 1020,5 46 6 0,0
25.05.2019 19:00:00 19,0 11,8 19,3 17,4 14,3 21 11 34 18 W 1020,3 20 18 0,0
25.05.2019 18:00:00 18,6 12,1 19,4 17,3 14,2 20 11 33 18 WNW 1020,5 55 0 0,0
25.05.2019 17:00:00 18,7 11,5 20,5 17,2 14,2 21 11 33 18 WNW 1020,4 40 0 0,0
25.05.2019 16:00:00 18,4 10,7 18,8 17,0 14,2 19 10 37 20 WNW 1020,5 41 0 0,0
25.05.2019 15:00:00 19,2 11,5 21,1 16,8 14,2 26 14 39 21 NW 1020,5 43 7 0,0
25.05.2019 14:00:00 19,1 10,9 21,1 16,6 14,2 20 11 32 18 WNW 1020,4 26 35 0,0
25.05.2019 13:00:00 20,4 11,9 23,6 16,5 14,2 18 10 35 19 WNW 1020,5 25 52 0,0
25.05.2019 12:00:00 19,5 12,0 23,6 16,4 14,2 21 11 35 19 WNW 1020,6 19 60 0,0
25.05.2019 11:00:00 18,6 13,5 22,4 16,5 14,2 15 8 26 14 WNW 1020,6 29 60 0,0
25.05.2019 10:00:00 16,5 12,8 17,5 16,5 14,2 13 7 23 12 WNW 1020,4 20 58 0,0
25.05.2019 09:00:00 14,7 11,8 13,3 16,6 14,2 12 6 20 11 WNW 1020,0 34 60 0,0
25.05.2019 08:00:00 13,2 11,8 10,1 16,7 14,2 10 6 16 9 W 1019,8 27 51 0,0
25.05.2019 07:00:00 11,4 10,8 10,0 16,8 14,2 9 5 11 6 WSW 1019,3 14 0 0,0
25.05.2019 06:00:00 12,5 12,0 11,7 16,9 14,1 6 3 10 5 W 1018,9 2,2 0 0,0
25.05.2019 05:00:00 12,7 12,2 11,6 16,9 14,2 8 5 16 9 W 1018,6 7 0 0,0
25.05.2019 04:00:00 12,7 11,9 11,7 17,0 14,1 8 4 13 7 W 1018,7 11 0 0,0
25.05.2019 03:00:00 13,9 12,9 13,1 17,0 14,1 9 5 22 12 W 1018,6 18 0 0,2
25.05.2019 02:00:00 15,0 14,2 14,1 17,1 14,1 14 8 23 12 W 1018,8 7 0 0,4
25.05.2019 01:00:00 15,1 14,0 13,9 17,1 14,1 7 4 12 7 W 1018,9 26 0 0,0
25.05.2019 00:00:00 15,4 14,3 14,5 17,2 14,1 8 4 10 6 W 1018,8 18 0 0,0
24.05.2019 23:00:00 15,5 14,2 14,3 17,3 14,1 8 4 12 6 WSW 1018,7 29 0 0,0
24.05.2019 22:00:00 16,1 14,3 15,0 17,2 14,1 3 2 13 7 NW 1018,3 16 0 0,0
24.05.2019 21:00:00 16,9 14,0 16,2 17,2 14,1 6 3 14 8 WNW 1017,9 41 0 0,0
24.05.2019 20:00:00 17,2 13,7 17,2 17,2 14,1 11 6 23 13 W 1016,8 45 0 0,0
24.05.2019 19:00:00 18,6 12,1 19,0 17,1 14,1 24 13 34 19 NW 1016,7 40 24 0,0
24.05.2019 18:00:00 19,8 14,2 19,4 17,0 14,1 19 10 29 16 WNW 1016,7 40 0 0,0
24.05.2019 17:00:00 21,1 13,0 24,3 16,9 14,0 10 5 20 11 WNW 1016,4 20 0 0,0
24.05.2019 16:00:00 21,4 15,0 23,1 16,8 14,0 6 4 18 10 SW 1016,9 0,4 2 0,0
24.05.2019 15:00:00 19,5 14,1 21,8 16,8 14,0 10 5 23 12 WNW 1017,4 19 0 0,0
24.05.2019 14:00:00 19,7 13,8 23,3 16,7 14,0 11 6 23 12 WNW 1017,8 39 0 0,0
24.05.2019 13:00:00 18,9 14,4 21,8 16,7 14,0 10 5 21 11 W 1017,9 20 0 0,0
24.05.2019 12:00:00 17,6 14,5 17,6 16,7 14,0 7 4 16 8 WNW 1018,2 20 0 0,0
24.05.2019 11:00:00 15,7 14,4 15,4 16,8 14,0 8 5 14 8 W 1018,5 12 0 0,0
24.05.2019 10:00:00 15,0 14,2 14,8 16,8 14,0 9 5 16 9 W 1018,5 9 0 -
24.05.2019 09:00:00 15,0 14,2 14,7 16,9 14,0 10 5 16 9 W 1018,2 7 0 0,2
24.05.2019 08:00:00 15,1 14,3 14,5 16,9 14,0 10 6 20 11 W 1017,8 9 0 0,0
24.05.2019 07:00:00 15,0 14,2 14,5 17,0 14,0 10 6 19 10 W 1017,3 9 0 0,4
24.05.2019 06:00:00 15,5 14,0 14,9 17,1 13,9 10 5 19 10 W 1017,2 15 0 0,0
24.05.2019 05:00:00 15,5 14,2 14,8 17,1 13,9 8 5 18 10 W 1017,1 15 0 0,0
24.05.2019 04:00:00 15,6 14,5 14,5 17,2 13,9 8 5 20 11 W 1017,2 16 0 0,0
24.05.2019 03:00:00 15,6 13,8 14,7 17,3 13,9 13 7 20 11 W 1017,5 27 0 0,2
24.05.2019 02:00:00 16,0 13,5 15,0 17,4 13,9 10 6 21 11 W 1017,6 39 0 0,0
24.05.2019 01:00:00 16,3 13,0 14,8 17,4 13,9 10 5 19 10 WSW 1017,7 46 0 0,0
24.05.2019 00:00:00 16,4 13,1 14,8 17,4 13,9 7 4 16 9 WSW 1017,5 45 0 0,0
23.05.2019 23:00:00 17,2 12,9 15,1 17,5 14,0 13 7 23 13 W 1017,3 49 0 0,0
23.05.2019 22:00:00 19,8 11,8 18,3 17,4 13,9 15 8 29 16 W 1016,8 59 0 0,0
23.05.2019 21:00:00 20,7 11,9 19,3 17,4 13,9 13 7 18 10 W 1016,4 60 0 0,0
23.05.2019 20:00:00 21,7 12,5 20,2 17,2 13,9 8 5 12 7 WNW 1015,8 18 0 0,0
23.05.2019 19:00:00 22,2 11,3 21,1 17,0 13,9 9 5 25 13 W 1015,7 60 0 0,0
23.05.2019 18:00:00 23,7 10,4 23,8 16,8 13,9 19 11 29 16 W 1015,8 55 38 0,0
23.05.2019 17:00:00 25,5 9,7 28,0 16,5 13,9 12 6 30 16 WSW 1015,8 60 44 0,0
23.05.2019 16:00:00 25,1 11,3 29,6 16,3 13,9 13 7 26 14 W 1016,0 57 54 0,0
23.05.2019 15:00:00 25,6 10,6 32,0 16,0 13,9 5 3 19 10 SW 1016,3 60 58 0,0
23.05.2019 14:00:00 25,3 11,1 32,3 15,8 13,8 6 3 17 9 WSW 1016,7 47 60 0,0
23.05.2019 13:00:00 24,2 11,2 30,8 15,6 13,8 4 2 15 8 WSW 1017,2 50 60 0,0
23.05.2019 12:00:00 22,7 11,7 31,5 15,6 13,8 5 3 12 6 NW 1017,6 60 60 0,0
23.05.2019 11:00:00 21,4 13,1 26,3 15,6 13,8 4 2 15 8 ESE 1017,7 60 60 0,0
23.05.2019 10:00:00 18,3 12,7 19,6 15,7 13,8 7 4 13 7 NE 1017,9 41 60 0,0
23.05.2019 09:00:00 15,2 12,1 12,2 15,9 13,8 4 2 9 5 ENE 1018,0 42 60 0,0
23.05.2019 08:00:00 10,7 10,4 6,7 16,1 13,8 4 2 8 4 ENE 1017,9 19 53 0,0
23.05.2019 07:00:00 7,8 7,5 4,6 16,2 13,8 4 2 7 4 ENE 1017,6 14 14 0,0
23.05.2019 06:00:00 7,6 7,3 4,9 16,4 13,8 4 2 6 3 E 1017,5 1,4 0 0,0
23.05.2019 05:00:00 7,6 7,3 5,1 16,5 13,8 6 4 10 5 ENE 1017,6 12 0 0,0
23.05.2019 04:00:00 8,1 7,7 5,3 16,7 13,8 6 3 8 4 E 1017,8 5 0 0,0
23.05.2019 03:00:00 9,0 8,5 6,0 16,9 13,8 3 2 6 3 E 1017,9 15 0 0,0
23.05.2019 02:00:00 9,8 9,2 6,8 17,0 13,8 3 2 5 3 E 1018,0 33 0 0,2
23.05.2019 01:00:00 10,3 9,2 7,5 17,1 13,8 4 2 8 4 E 1018,0 29 0 0,0
23.05.2019 00:00:00 11,6 10,3 8,6 17,2 13,8 4 2 7 4 SSE 1018,1 45 0 0,0
22.05.2019 23:00:00 12,8 11,2 9,2 17,2 13,8 4 2 6 3 SE 1018,3 47 0 0,0
22.05.2019 22:00:00 15,4 12,3 11,1 17,2 13,8 3 1 5 3 SE 1017,9 53 2 0,0
22.05.2019 21:00:00 20,6 11,5 15,0 17,1 13,8 3 2 14 8 N 1017,8 20 32 0,0
22.05.2019 20:00:00 23,3 9,7 21,8 16,9 13,8 10 5 22 12 N 1017,5 55 60 0,0
22.05.2019 19:00:00 24,3 9,1 26,2 16,7 13,7 6 3 18 10 NNE 1017,5 56 57 0,0
22.05.2019 18:00:00 25,2 8,2 32,8 16,4 13,8 4 2 19 11 E 1017,7 55 60 0,0
22.05.2019 17:00:00 24,9 9,2 27,1 16,1 13,7 5 3 22 12 N 1018,1 60 39 0,0
22.05.2019 16:00:00 24,8 11,0 27,8 15,8 13,7 9 5 22 12 ENE 1018,4 60 51 0,0
22.05.2019 15:00:00 24,5 10,4 35,3 15,5 13,7 5 3 18 10 NE 1018,7 60 58 0,0
22.05.2019 14:00:00 23,5 11,2 32,0 15,2 13,7 9 5 21 11 E 1019,2 60 60 0,0
22.05.2019 13:00:00 22,6 11,3 32,7 15,1 13,7 5 3 19 11 NNE 1019,7 60 60 0,0
22.05.2019 12:00:00 22,0 12,5 29,8 15,0 13,7 5 3 23 12 NNE 1020,0 60 60 0,0
22.05.2019 11:00:00 19,4 13,1 25,1 15,0 13,7 9 5 17 9 E 1019,8 39 60 0,0
22.05.2019 10:00:00 16,0 12,2 17,2 15,1 13,7 4 2 10 6 ENE 1020,3 25 60 0,0
22.05.2019 09:00:00 11,7 11,4 10,8 15,2 13,7 4 2 8 4 NE 1020,4 6 60 0,0
22.05.2019 08:00:00 9,0 8,9 8,0 15,3 13,7 3 2 7 4 ENE 1020,3 0,7 17 0,0
22.05.2019 07:00:00 7,6 7,5 7,5 15,5 13,7 3 2 5 3 ENE 1019,9 0,2 0 0,0
22.05.2019 06:00:00 7,2 6,9 5,1 15,6 13,7 2 1 3 2 SSE 1019,7 0,4 0 0,0
22.05.2019 05:00:00 7,1 6,7 4,9 15,8 13,7 3 1 5 3 SE 1019,6 1,2 0 0,0
22.05.2019 04:00:00 7,7 7,3 5,0 15,9 13,7 3 2 4 2 ENE 1019,7 0,3 0 0,0
22.05.2019 03:00:00 8,4 8,0 5,8 16,0 13,7 2 1 5 3 ESE 1019,6 4,2 0 0,0
22.05.2019 02:00:00 8,5 7,7 6,2 16,1 13,7 0 0 7 4 N 1019,7 13 0 0,0
22.05.2019 01:00:00 9,5 8,6 6,9 16,2 13,7 3 2 5 3 SW 1019,8 15 0 0,0
22.05.2019 00:00:00 11,0 9,7 8,0 16,2 13,7 2 1 9 5 ESE 1019,6 32 0 0,0
21.05.2019 23:00:00 12,6 10,1 9,2 16,2 13,7 3 1 13 7 W 1019,6 60 0 0,0
21.05.2019 22:00:00 15,1 9,9 11,8 16,2 13,7 0 0 20 11 N 1019,2 60 1 0,0
21.05.2019 21:00:00 16,8 10,2 16,2 16,1 13,7 15 8 33 18 NNE 1018,8 60 27 0,0
21.05.2019 20:00:00 20,8 12,0 20,6 15,9 13,7 9 5 22 12 W 1017,6 54 60 0,0
21.05.2019 19:00:00 21,1 11,4 24,6 15,7 13,7 11 6 22 12 W 1017,4 47 60 0,0
21.05.2019 18:00:00 21,2 11,8 24,3 15,4 13,7 14 7 24 13 W 1017,7 20 56 0,0
21.05.2019 17:00:00 20,7 12,9 25,3 15,2 13,7 13 7 22 12 W 1017,9 20 57 0,0
21.05.2019 16:00:00 19,8 12,8 23,2 15,0 13,7 11 6 24 13 W 1018,4 17 43 0,0
21.05.2019 15:00:00 18,9 12,6 24,0 14,7 13,6 11 6 23 12 W 1018,7 17 51 0,0
21.05.2019 14:00:00 17,3 12,4 20,5 14,7 13,7 12 7 25 13 W 1019,1 18 47 0,0
21.05.2019 13:00:00 15,3 12,2 18,0 14,6 13,7 12 7 27 14 W 1019,5 16 17 0,0
21.05.2019 12:00:00 12,7 11,9 14,2 14,6 13,7 9 5 16 9 WNW 1019,5 10 1 0,0
21.05.2019 11:00:00 11,8 11,6 12,9 14,6 13,7 9 5 15 8 WNW 1019,4 3,5 0 0,0
21.05.2019 10:00:00 10,9 10,7 11,6 14,7 13,6 7 4 11 6 W 1018,9 0,2 0 0,0
21.05.2019 09:00:00 10,3 10,1 10,6 14,8 13,6 5 3 12 7 W 1018,6 0,3 0 0,0
21.05.2019 08:00:00 10,0 9,8 9,9 14,9 13,6 7 4 12 6 WNW 1018,1 0,2 0 0,2
21.05.2019 07:00:00 9,7 9,6 9,2 15,0 13,6 6 3 11 6 W 1017,5 0,2 0 0,0
21.05.2019 06:00:00 9,4 9,3 5,2 15,1 13,7 6 3 10 5 NW 1017,0 0,6 0 0,0
21.05.2019 05:00:00 8,6 8,2 4,9 15,2 13,6 7 4 10 5 W 1017,1 0,4 0 0,0
21.05.2019 04:00:00 9,7 9,2 7,6 15,3 13,7 6 4 14 8 W 1016,8 6 0 0,0
21.05.2019 03:00:00 9,9 9,4 7,0 15,4 13,6 8 5 11 6 W 1016,7 7 0 0,0
21.05.2019 02:00:00 9,9 9,3 6,6 15,5 13,6 7 4 12 7 WSW 1016,8 10 0 0,0
21.05.2019 01:00:00 10,8 10,3 8,4 15,6 13,6 9 5 14 7 W 1017,0 15 0 0,0
21.05.2019 00:00:00 10,7 10,1 8,3 15,6 13,6 6 3 8 4 WSW 1016,9 14 0 0,0
20.05.2019 23:00:00 11,5 10,4 9,1 15,6 13,6 3 2 9 5 SSW 1016,6 10 0 0,0
20.05.2019 22:00:00 12,9 11,0 11,4 15,6 13,7 6 4 13 7 W 1015,8 10 0 0,0
20.05.2019 21:00:00 14,8 13,5 14,3 15,6 13,6 3 2 8 5 ENE 1015,3 18 0 0,0
20.05.2019 20:00:00 15,5 13,5 15,5 15,5 13,6 3 1 8 5 ENE 1015,0 43 2 0,0
20.05.2019 19:00:00 15,0 13,0 14,4 15,4 13,6 5 3 14 8 S 1014,8 35 1 0,0
20.05.2019 18:00:00 14,4 13,1 13,2 15,3 13,6 4 2 36 20 S 1014,8 8 1 3,7
20.05.2019 17:00:00 18,3 11,4 20,9 15,1 13,6 15 8 25 13 W 1014,0 20 12 0,0
20.05.2019 16:00:00 17,5 11,3 16,5 15,0 13,6 14 7 23 12 W 1014,2 20 3 0,0
20.05.2019 15:00:00 15,0 12,9 14,2 14,8 13,6 16 9 43 23 W 1014,6 18 5 0,0
20.05.2019 14:00:00 18,6 11,2 21,4 14,7 13,6 11 6 23 12 W 1014,1 19 15 0,0
20.05.2019 13:00:00 18,1 11,2 20,7 14,6 13,6 9 5 25 13 NW 1014,1 42 31 0,0
20.05.2019 12:00:00 17,1 12,2 16,1 14,5 13,6 11 6 21 12 W 1014,2 19 9 0,0
20.05.2019 11:00:00 15,4 11,2 16,8 14,5 13,6 11 6 20 11 WNW 1014,5 19 15 0,0
20.05.2019 10:00:00 15,4 12,0 15,4 14,5 13,6 6 4 17 9 NNW 1014,4 17 35 0,0
20.05.2019 09:00:00 13,3 11,5 12,5 14,6 13,6 10 6 17 9 W 1014,1 15 7 0,0

tt = Température de l'air
td = dewpoint
tt 5cm = Température de l'air 5cm
tt -20cm = Température de l'air -20cm
tt -100cm = Température de l'air -100cm
ff = Vitesse du vent
fx = gusts
dd = Direction du vent
ppp = reduced air pressure
vv = visibility
sd = Ensoleillement
rr = Quantités de précipitations

stations d'obs. à proximité